sat.trackr.live / text

‹ back to catalog

STARLINK-31220

NORAD 59039 · 2024-038S

PAYLOAD ACTIVE UNKNOWN

§ Identity

Operator
Country
US
Launch date
2024-02-25
Launch site
AFETR
Launch vehicle
Mass (kg)
RCS (m²)

Purposes: comms

External: N2YO · Heavens-Above · Gunter

§ Orbital elements

Epoch: 2026-05-25T03:49:51.339072Z

Period
94.27 min
Inclination
43.0003°
Eccentricity
0.0001298
Mean motion
15.27605744 rev/d
Perigee alt
482.1 km
Apogee alt
483.9 km
Semi-major
6,861.1 km
B*
3.6745e-4
RAAN
315.1214°
Arg perigee
276.2575°
Mean anomaly
83.8129°
Rev number
12,645

§ Raw data

STARLINK-312201 59039U 24038S   26145.15962198  .00009871  00000+0  36745-3 0  99942 59039  43.0003 315.1214 0001298 276.2575  83.8129 15.27605744126459

JSON: /api/v1/satellites/59039 · /tle

For live sub-satellite position, see the globe view (requires WebGL).

§ Visibility from observer

Set your observer location to see the next 7 days of passes ≥ 10°. The values pass through the URL so the page stays shareable.

No JS? Fill the form by hand. The geolocation button needs JavaScript.